ONEWEB-0283, 49001

Orbit data source: Space-Track

ONEWEB-0283, 49001 is a payload satellite owned by One Web (NAA) (UK) in LEO that was launched on Thu, 01 Jul 2021 UTC via a SOYUZ-2-1B launch vehicle from the Vostochny Cosmodrome (VOSTO). Payload-class satellites include a variety of spacecraft equipped with specific instruments for various scientific and technological missions. These include communications satellites like Starlink; space stations such as the ISS; scientific satellites like the Hubble; Earth observation satellites from companies like Planet Labs, Umbra, and HawkEye 360; GPS; miniature CubeSats for education and research; and military/defense satellites.

Loading next visibility...
Identifier
49001, 2021-060AL
Orbit
LEO
Country
Flag of UKUK
Related business
Manufacturer
One Web
Mission
Operational Commercial Communications
Bus & Motor
ARROW, Unknown motor
Mass
148 kg wet, ~140 kg dry
Launch date (UTC)
2021-07-01 (4 years ago)
Launch vehicle
SOYUZ-2-1B
Launch site
Vostochny Cosmodrome (VOSTO)
Object type
Payload
Rocket body
Debris
Shape & HBR
Trap Box + 2 Pan, 6.7 m
Radar Cross Section
3.464 m², Large (>1 m²)

Expand to show TLE details & history
Last TLE update: 10 hours ago

TLE from 10 hours ago
0 ONEWEB-0283
1 49001U 21060AL  25349.78066864 -.00000331  00000-0 -90070-3 0  9999
2 49001  87.9049 265.3016 0001859  71.7360 288.3973 13.16593594215489
Epoch: 2025-12-15T18:44Z
TLE epoch observation values (Epoch: 2025-12-15T18:44:09.770Z)
Latitude
-0.00003°
Longitude
-100.41343°
Altitude
1,200.212 km
Speed
7.254 km/s
True Right ascension
17h 41m 12s
True Declination
0° 00' 00"
Sunlit
Object was in daylight at epoch
Visualization orbit readout
Latitude
Unknown
Longitude
Unknown
Altitude
Unknown
Speed
Unknown
Apparent Right ascension
Unknown
Apparent Declination
Unknown
Sunlit
N/A
Visualization observer readout
Local Sidereal Time
03:10:44
Azimuth
Unknown
Elevation
Unknown
Doppler factor
Unknown
Orbital elements
Apogee altitude
1,196.277 km
Perigee altitude
1,193.462 km
Semi-major axis
7,573.007 km
Eccentricity
0.00019
Inclination
87.9049°
RAAN
265.3016°
Arg. of periapsis
71.736°
True anomaly
288.37708°
Mean anomaly
288.3973°
Eccentric anomaly
288.38719°
Mean motion
3.29337 °/min
Orbital period
109.31 mins
BSTAR
-0.0009007
Loading maneuver chart data...
Computing Atmospheric mass density...
Loading historical data...
Loading historical data...
Loading historical data...
Loading historical data...
Loading historical data...
Loading historical data...
Loading historical data...

Documentation

Showing up to 5 results
|